This demonstration page uses our WeatherBlox Daily Observations layout. Learn more.

Left ArrowRight Arrow

Hourly Observations for September 5, 2015

Temp ( °F °C ) Dew Point ( °F °C ) Humidity (%) Winds ( mph kmh ) Pressure ( in mb ) Visibility ( mi km ) Precip ( " mm )
12:53 am 00:53 Clear 66 18.9 37 2.8 34 34 NNW 9 15 29.90 1013 10 16 0.00 0.00
1:53 am 01:53 Clear 65 18.3 37 2.8 36 36 NNW 12 19 29.91 1013 10 16 0.00 0.00
2:53 am 02:53 Clear 64 17.8 38 3.3 38 38 NNW 10 17 29.92 1013 10 16 0.00 0.00
3:53 am 03:53 Clear 64 17.8 37 2.8 37 37 NNW 12 19 29.93 1014 10 16 0.00 0.00
4:53 am 04:53 Clear 62 16.7 37 2.8 40 40 NNW 9 15 29.94 1014 10 16 0.00 0.00
5:53 am 05:53 Clear 61 16.1 37 2.8 41 41 NNW 12 19 29.95 1014 10 16 0.00 0.00
6:53 am 06:53 Sunny 61 16 37 3 42 42 NNW 10 17 N/A 2 3 0.00 0.00
7:53 am 07:53 Sunny 63 17.2 37 2.8 38 38 NNW 12 19 29.99 1016 10 16 0.00 0.00
8:53 am 08:53 Sunny 66 18.9 35 1.7 32 32 NNW 13 20 30.01 1016 10 16 0.00 0.00
9:53 am 09:53 Sunny 69 20.6 34 1.1 27 27 N 15 24 30.01 1016 10 16 0.00 0.00
10:53 am 10:53 Sunny 72 22.2 33 0.6 24 24 N 24 39 30.01 1016 10 16 0.00 0.00
11:53 am 11:53 Sunny 74 23.3 33 0.6 22 22 NNW 13 20 30.00 1016 10 16 0.00 0.00
12:53 pm 12:53 Sunny 78 25.6 30 -1.1 17 17 N 12 19 29.98 1015 10 16 0.00 0.00
1:53 pm 13:53 Sunny 81 27.2 20 -6.7 10 10 NE 12 19 29.96 1015 10 16 0.00 0.00
2:53 pm 14:53 Sunny 83 28.3 20 -6.7 10 10 N 14 22 29.96 1014 10 16 0.00 0.00
3:53 pm 15:53 Sunny 83 28.3 23 -5 11 11 NW 9 15 29.94 1014 10 16 0.00 0.00
4:53 pm 16:53 Sunny 84 28.9 24 -4.4 11 11 NW 9 15 29.92 1013 10 16 0.00 0.00
5:53 pm 17:53 Sunny 84 28.9 22 -5.6 10 10 NNW 12 19 29.92 1013 10 16 0.00 0.00
6:53 pm 18:53 Sunny 84 28.9 23 -5 10 10 N 8 13 29.92 1013 10 16 0.00 0.00
7:53 pm 19:53 Clear 78 25.6 25 -3.9 14 14 NNW 5 7 29.92 1013 10 16 0.00 0.00
8:53 pm 20:53 Clear 74 23.3 28 -2.2 18 18 NNW 5 7 29.93 1014 10 16 0.00 0.00
9:53 pm 21:53 Clear 74 23.3 31 -0.6 20 20 undefined N/A 29.95 1014 10 16 0.00 0.00
10:53 pm 22:53 Clear 73 22.8 30 -1.1 20 20 NNW 8 13 29.95 1014 10 16 0.00 0.00
11:53 pm 23:53 Clear 73 22.8 28 -2.2 19 19 undefined N/A 29.96 1015 10 16 0.00 0.00

Powered by AerisWeather